EW5444 Weather Reports


time (UTC)temp
C
wind
direction
speed
KPH
gust
KPH
rain 1hr
cm
rain 24hr
cm
rain mn
cm
humidity
%
barometer
mb
20260507203006 15 287 0.0 0.0 0.00 0.00 0.03 77 1013.0
20260507202005 15 287 0.0 0.0 0.00 0.00 0.03 76 1013.0
20260507201006 16 287 0.0 3.2 0.00 0.00 0.03 75 1012.9
20260507200005 16 281 0.0 0.0 0.00 0.00 0.03 74 1012.9
20260507195005 16 281 0.0 0.0 0.00 0.00 0.03 74 1013.0
20260507194005 16 281 0.0 0.0 0.00 0.00 0.03 73 1013.0
20260507193006 16 281 0.0 0.0 0.00 0.00 0.03 73 1013.1
20260507192005 16 281 0.0 0.0 0.00 0.00 0.03 72 1013.0
20260507191005 16 281 0.0 0.0 0.00 0.00 0.03 71 1012.9
20260507190006 17 281 0.0 0.0 0.00 0.00 0.03 69 1012.7
20260507185006 17 305 0.0 0.0 0.00 0.00 0.03 67 1012.7
20260507184006 17 318 0.0 9.7 0.00 0.00 0.03 66 1012.5
20260507183005 18 321 3.2 9.7 0.00 0.00 0.03 63 1012.5
20260507182006 18 312 0.0 0.0 0.00 0.00 0.03 63 1012.5
20260507181005 19 328 0.0 0.0 0.00 0.00 0.03 61 1012.3
20260507180005 20 291 1.6 11.3 0.00 0.00 0.03 60 1012.5
20260507175005 20 333 12.9 12.9 0.00 0.00 0.03 60 1012.3
20260507174005 20 325 6.4 9.7 0.00 0.00 0.03 57 1012.4
20260507173006 21 294 0.0 9.7 0.00 0.00 0.03 57 1012.3
20260507172006 21 278 4.8 11.3 0.00 0.00 0.03 56 1012.2
20260507171005 21 283 0.0 0.0 0.00 0.00 0.03 53 1012.1
20260507170005 21 281 0.0 9.7 0.00 0.00 0.03 52 1012.0
20260507165006 21 250 8.0 14.5 0.00 0.00 0.03 52 1012.1
20260507164005 21 288 8.0 14.5 0.00 0.00 0.03 48 1012.1
20260507163005 21 293 6.4 14.5 0.00 0.00 0.03 48 1012.1
20260507162006 22 295 12.9 12.9 0.00 0.00 0.03 46 1012.2
20260507161005 22 259 6.4 9.7 0.00 0.00 0.03 48 1012.2
20260507160005 22 267 0.0 9.7 0.00 0.00 0.03 47 1012.2
20260507155005 22 297 8.0 14.5 0.00 0.00 0.03 47 1012.1
20260507154006 22 308 3.2 14.5 0.00 0.00 0.03 49 1012.0
20260507153005 22 288 9.7 14.5 0.00 0.00 0.03 48 1012.1
20260507152005 22 288 6.4 14.5 0.00 0.00 0.03 48 1012.1
20260507151005 22 280 1.6 16.1 0.00 0.00 0.03 45 1012.2
20260507150006 22 239 0.0 16.1 0.00 0.00 0.03 47 1012.2
20260507145005 22 277 11.3 17.7 0.00 0.00 0.03 48 1012.3
20260507144005 22 264 9.7 16.1 0.00 0.00 0.03 47 1012.4
20260507143006 22 297 16.1 19.3 0.00 0.00 0.03 46 1012.4
20260507142005 22 304 8.0 22.5 0.00 0.00 0.03 48 1012.5
20260507141007 22 255 0.0 17.7 0.00 0.00 0.03 46 1012.7
20260507140006 22 276 6.4 16.1 0.00 0.00 0.03 44 1012.7
20260507135005 22 255 9.7 22.5 0.00 0.00 0.03 50 1012.8
20260507134006 22 301 9.7 20.9 0.00 0.00 0.03 47 1012.8
20260507133005 22 245 6.4 14.5 0.00 0.00 0.03 47 1012.9
20260507132006 22 239 16.1 17.7 0.00 0.00 0.03 49 1012.9
20260507131005 22 278 3.2 17.7 0.00 0.00 0.03 44 1013.0
20260507130005 22 143 3.2 20.9 0.00 0.00 0.03 46 1013.0
20260507125005 22 264 6.4 22.5 0.00 0.00 0.03 49 1013.0
20260507124006 22 276 3.2 14.5 0.00 0.00 0.03 50 1012.9
20260507123005 21 126 0.0 17.7 0.00 0.00 0.03 52 1012.9
20260507122006 21 257 0.0 9.7 0.00 0.00 0.03 56 1012.9
20260507121006 22 249 9.7 12.9 0.00 0.00 0.03 57 1013.1
20260507120006 21 286 3.2 16.1 0.00 0.00 0.03 56 1013.1
20260507115006 21 263 0.0 9.7 0.00 0.00 0.03 59 1013.2
20260507114005 21 264 0.0 16.1 0.00 0.00 0.03 58 1013.2
20260507113006 22 259 8.0 11.3 0.00 0.00 0.03 55 1013.3
20260507112006 22 23 0.0 6.4 0.00 0.00 0.03 58 1013.4
20260507111005 21 245 0.0 12.9 0.00 0.00 0.03 57 1013.5
20260507110006 21 262 6.4 12.9 0.00 0.00 0.03 60 1013.6
20260507105005 20 226 8.0 14.5 0.00 0.00 0.03 62 1013.6
20260507104005 20 300 8.0 12.9 0.00 0.00 0.03 60 1013.6
20260507103005 20 252 6.4 9.7 0.00 0.00 0.03 63 1013.9
20260507102007 20 231 4.8 11.3 0.00 0.00 0.03 61 1014.1
20260507101005 20 252 9.7 14.5 0.00 0.00 0.03 65 1014.1
20260507100006 20 203 4.8 9.7 0.00 0.00 0.03 66 1014.1
20260507095007 20 256 1.6 11.3 0.00 0.00 0.03 66 1014.1
20260507094006 18 263 0.0 9.7 0.00 0.00 0.03 68 1014.1
20260507093006 19 266 0.0 12.9 0.00 0.00 0.03 70 1014.1
20260507092006 20 245 0.0 4.8 0.00 0.00 0.03 70 1014.0
20260507091006 18 242 0.0 4.8 0.00 0.00 0.03 71 1014.1
20260507090006 18 35 0.0 1.6 0.00 0.00 0.03 73 1014.1
20260507085006 18 296 0.0 4.8 0.00 0.00 0.03 76 1014.3
20260507084006 17 318 0.0 6.4 0.00 0.00 0.03 77 1014.4
20260507083006 17 277 3.2 6.4 0.00 0.00 0.03 77 1014.3
20260507082006 17 55 0.0 3.2 0.00 0.00 0.03 80 1014.2
20260507081006 17 249 0.0 1.6 0.00 0.00 0.03 82 1014.2
20260507080006 16 248 1.6 4.8 0.00 0.00 0.03 81 1014.2
20260507075006 16 70 6.4 8.0 0.00 0.00 0.03 82 1014.2
20260507074007 16 79 0.0 0.0 0.00 0.00 0.03 85 1014.2
20260507073006 15 49 3.2 6.4 0.00 0.00 0.03 85 1014.1
20260507072007 15 117 6.4 6.4 0.00 0.00 0.03 88 1014.1
20260507071006 15 150 3.2 6.4 0.00 0.00 0.03 91 1014.1
20260507070010 14 164 3.2 6.4 0.00 0.00 0.03 93 1014.0
20260507065006 14 105 6.4 8.0 0.00 0.00 0.03 93 1014.0
20260507064006 14 155 0.0 6.4 0.00 0.00 0.03 94 1013.9
20260507063006 13 148 4.8 6.4 0.00 0.00 0.03 94 1013.8
20260507062006 13 155 0.0 0.0 0.00 0.00 0.03 94 1013.8
20260507061006 13 129 0.0 0.0 0.00 0.00 0.03 94 1013.8
20260507060006 13 128 0.0 4.8 0.00 0.00 0.03 94 1013.7
20260507055006 12 109 0.0 1.6 0.00 0.00 0.03 94 1013.5
20260507054006 11 107 0.0 3.2 0.00 0.00 0.03 94 1013.5
20260507053006 11 28 0.0 3.2 0.00 0.00 0.03 94 1013.4
20260507052006 11 29 1.6 3.2 0.00 0.00 0.03 94 1013.3
20260507051006 11 29 0.0 0.0 0.00 0.00 0.03 94 1013.4
20260507050006 11 349 0.0 0.0 0.00 0.00 0.03 93 1013.3
20260507045006 11 349 0.0 0.0 0.00 0.00 0.03 93 1013.1
20260507044006 11 349 0.0 0.0 0.00 0.00 0.03 93 1013.1
20260507043007 11 349 0.0 0.0 0.00 0.00 0.03 93 1013.0
20260507042006 11 349 0.0 0.0 0.00 0.00 0.03 93 1012.9
20260507041006 11 349 0.0 0.0 0.00 0.00 0.03 93 1012.9
20260507040006 11 349 0.0 0.0 0.00 0.00 0.03 93 1012.9
20260507035006 11 349 0.0 0.0 0.00 0.00 0.03 93 1012.8
20260507034007 11 349 0.0 3.2 0.00 0.00 0.03 94 1012.8
20260507033006 11 349 0.0 3.2 0.00 0.00 0.03 94 1012.8
20260507032006 11 349 0.0 0.0 0.00 0.00 0.03 94 1012.8
20260507031006 11 350 0.0 0.0 0.00 0.00 0.03 94 1012.7
20260507030006 11 349 0.0 0.0 0.00 0.00 0.03 94 1012.7
20260507025006 11 349 0.0 0.0 0.00 0.00 0.03 94 1012.8
20260507024007 11 349 0.0 0.0 0.00 0.00 0.00 94 1012.8
20260507023006 11 349 0.0 0.0 0.00 0.00 0.00 94 1012.8
20260507022007 11 350 0.0 0.0 0.00 0.00 0.00 94 1012.8
20260507021006 11 349 0.0 0.0 0.00 0.00 0.00 94 1012.8
20260507020006 12 349 0.0 0.0 0.00 0.00 0.00 93 1012.8
20260507015006 12 349 0.0 0.0 0.00 0.00 0.00 93 1012.8
20260507014006 12 349 0.0 0.0 0.00 0.00 0.00 93 1012.7
20260507013006 12 349 0.0 0.0 0.00 0.00 0.00 93 1012.7
20260507012006 12 349 0.0 4.8 0.00 0.00 0.00 93 1012.7
20260507011006 12 80 0.0 0.0 0.00 0.00 0.00 93 1012.6
20260507010006 12 80 0.0 0.0 0.00 0.00 0.00 93 1012.7
20260507005007 12 80 0.0 3.2 0.00 0.00 0.00 93 1012.8
20260507004006 12 79 3.2 3.2 0.00 0.00 0.00 93 1012.8
20260507003006 12 79 3.2 3.2 0.00 0.00 0.00 93 1012.7
20260507002006 12 84 1.6 3.2 0.00 0.00 0.00 93 1012.7
20260507001006 13 102 1.6 4.8 0.00 0.00 0.00 93 1012.6
20260507000006 13 103 0.0 0.0 0.00 0.00 0.00 93 1012.7
20260506235006 13 101 0.0 3.2 0.00 0.00 0.00 93 1012.7
20260506234006 13 114 1.6 3.2 0.00 0.00 0.00 93 1012.7
20260506233006 13 103 0.0 1.6 0.00 0.00 0.00 92 1012.6
20260506232006 13 138 3.2 6.4 0.00 0.00 0.00 92 1012.8
20260506231006 13 135 4.8 11.3 0.00 0.00 0.00 92 1013.0
20260506230007 13 120 1.6 6.4 0.00 0.00 0.00 92 1012.7
20260506225007 13 26 0.0 3.2 0.00 0.00 0.00 91 1012.6
20260506224006 13 96 3.2 4.8 0.00 0.00 0.00 91 1012.7
20260506223006 13 164 1.6 14.5 0.00 0.00 0.00 91 1012.9
20260506222006 13 176 4.8 8.0 0.00 0.00 0.00 90 1012.8
20260506221006 13 169 1.6 4.8 0.00 0.00 0.00 90 1012.5
20260506220006 13 215 4.8 8.0 0.00 0.00 0.00 89 1012.6
20260506215007 13 187 3.2 9.7 0.00 0.00 3.89 88 1012.5
20260506214007 13 171 8.0 12.9 0.00 0.00 3.89 88 1012.5
20260506213007 14 187 12.9 16.1 0.00 0.00 3.89 87 1012.7
20260506212006 14 208 3.2 8.0 0.00 0.00 3.89 87 1012.5
20260506211007 15 166 3.2 11.3 0.00 0.00 3.89 87 1012.5
20260506210006 15 191 3.2 8.0 0.00 0.00 3.89 87 1012.4
20260506205006 15 218 0.0 3.2 0.00 0.00 3.89 86 1012.3
20260506204006 15 156 3.2 6.4 0.00 0.00 3.89 86 1012.3